Stavanger, Norway

3:02 AM CEST on September 23, 2017 (GMT +0200)
Sola

Weather History for ENZV - November, 2012

Change the Weather History Date:

Tuesday, November 6, 2012

  Actual Average Record
Temperature  
Mean Temperature 40 °F -  
Max Temperature 49 °F 43 °F 58 °F (2015)
Min Temperature 32 °F 34 °F 28 °F (1998)
Degree Days  
Heating Degree Days 24    
Moisture  
Dew Point 37 °F    
Average Humidity 82    
Maximum Humidity 100    
Minimum Humidity 60    
Precipitation  
Precipitation 0.00 in 0.17 in - ()
Sea Level Pressure  
Sea Level Pressure 29.57 in    
Wind  
Wind Speed 10 mph ()    
Max Wind Speed 24 mph    
Max Gust Speed -    
Visibility 6.0 miles    
Events Rain    
Averages and records for this station are not official NWS values.
T = Trace of Precipitation, MM = Missing Value Source: Averaged Metar Reports

Daily Weather History Graph

Daily Weather History Graph

Search for Another Location

Airport or City:

Trip Planner

Search our weather history database for the weather conditions in past years. The results will help you decide how hot, cold, wet, or windy it might be!

Date:

Astronomy

Nov. 06, 2012 Rise Set
Actual Time 8:07 AM CET 4:33 PM CET
Civil Twilight 7:23 AM CET 5:18 PM CET
Nautical Twilight 6:34 AM CET 6:06 PM CET
Astronomical Twilight 5:47 AM CET 6:53 PM CET
Moon 11:09 PM CET (11/6) 1:43 PM CET (11/6)
Length of Visible Light 9h 54m
Length of Day
8h 25m
Waning Gibbous, 56% of the Moon is Illuminated
Nov 6
Waning Gibbous
Nov 7
Last Quarter
Nov 13
New
Nov 20
First Quarter
Nov 28
Full

Hourly Weather History & Observations

Time (CET) Temp. Windchill Dew Point Humidity Pressure Visibility Wind Dir Wind Speed Gust Speed Precip Events Conditions
12:20 AM 32.0 °F - 30.2 °F 93% 29.71 in 6.2 mi Variable 2.3 mph - N/A   Partly Cloudy
12:50 AM 33.8 °F - 32.0 °F 93% 29.71 in 6.2 mi ESE 2.3 mph - N/A   Scattered Clouds
1:00 AM 34 °F - 32 °F 90% 29.73 in 11 mi South 4.5 mph - -   Unknown Precipitation
3:20 AM 35.6 °F - 33.8 °F 93% 29.71 in 6.2 mi Variable 2.3 mph - N/A   Scattered Clouds
3:50 AM 35.6 °F 31.7 °F 33.8 °F 93% 29.68 in 6.2 mi SSE 4.6 mph - N/A   Mostly Cloudy
4:50 AM 35.6 °F 32.8 °F 33.8 °F 93% 29.68 in 6.2 mi SE 3.5 mph - N/A   Mostly Cloudy
5:50 AM 35.6 °F - 33.8 °F 93% 29.65 in 6.2 mi Variable 2.3 mph - N/A   Mostly Cloudy
6:20 AM 37.4 °F 32.1 °F 35.6 °F 93% 29.65 in 6.2 mi ESE 6.9 mph - N/A   Mostly Cloudy
6:50 AM 37.4 °F 31.4 °F 35.6 °F 93% 29.62 in 6.2 mi SE 8.1 mph - N/A   Mostly Cloudy
7:00 AM 40 °F - 37 °F 86% 29.64 in 3 mi South 4.5 mph - - Rain Rain Showers
7:20 AM 39.2 °F - 37.4 °F 93% 29.62 in 6.2 mi Variable 2.3 mph - N/A Rain Light Rain
7:50 AM 39.2 °F 35.9 °F 35.6 °F 87% 29.62 in 6.2 mi SSE 4.6 mph - N/A Rain Light Rain
8:20 AM 44.6 °F 39.7 °F 37.4 °F 76% 29.59 in 6.2 mi SW 9.2 mph - N/A Rain Light Rain
8:50 AM 44.6 °F 39.2 °F 37.4 °F 76% 29.59 in 6.2 mi WSW 10.4 mph - N/A Rain Light Rain
9:20 AM 44.6 °F 38.8 °F 35.6 °F 71% 29.59 in 6.2 mi SW 11.5 mph - N/A Rain Light Rain
9:50 AM 42.8 °F 37.0 °F 37.4 °F 81% 29.56 in 6.2 mi SW 10.4 mph - N/A Rain Light Rain Showers
10:20 AM 42.8 °F 36.2 °F 39.2 °F 87% 29.56 in 6.2 mi SSW 12.7 mph - N/A Rain Rain Showers
10:50 AM 42.8 °F 37.0 °F 39.2 °F 87% 29.53 in 6.2 mi South 10.4 mph - N/A Rain Light Rain
11:20 AM 42.8 °F 36.2 °F 41.0 °F 93% 29.50 in 5.6 mi South 12.7 mph - N/A Rain Rain
11:50 AM 42.8 °F 35.4 °F 41.0 °F 93% 29.47 in 6.2 mi South 15.0 mph - N/A Rain Light Rain
12:20 PM 42.8 °F 36.2 °F 41.0 °F 93% 29.47 in 5.0 mi South 12.7 mph - N/A Rain Rain
12:50 PM 44.6 °F 38.1 °F 42.8 °F 93% 29.44 in 4.3 mi South 13.8 mph - N/A Rain Rain
1:00 PM 46 °F - 45 °F 95% 29.44 in 3 mi SSW 11.2 mph - - Rain Light Rain
1:20 PM 46.4 °F 41.5 °F 46.4 °F 100% 29.42 in 3.1 mi SSW 10.4 mph - N/A Rain Rain
1:50 PM 48.2 °F - 48.2 °F 100% 29.42 in 3.1 mi West 11.5 mph - N/A Rain Light Rain
2:20 PM 50.0 °F - 48.2 °F 94% 29.42 in 6.2 mi NW 15.0 mph - N/A Rain Light Rain
2:50 PM 48.2 °F - 46.4 °F 93% 29.42 in 5.6 mi NW 21.9 mph - N/A Rain Light Rain
3:20 PM 48.2 °F - 44.6 °F 87% 29.44 in 6.2 mi NNW 18.4 mph - N/A   Mostly Cloudy
3:50 PM 48.2 °F - 42.8 °F 82% 29.47 in 6.2 mi NW 23.0 mph - N/A   Mostly Cloudy
4:20 PM 48.2 °F - 41.0 °F 76% 29.47 in 6.2 mi NNW 21.9 mph - N/A   Mostly Cloudy
4:50 PM 46.4 °F 38.3 °F 39.2 °F 76% 29.50 in 6.2 mi NNW 23.0 mph - N/A   Mostly Cloudy
5:20 PM 46.4 °F 38.5 °F 37.4 °F 71% 29.50 in 6.2 mi NNW 21.9 mph - N/A   Mostly Cloudy
5:50 PM 46.4 °F 38.1 °F 35.6 °F 66% 29.53 in 6.2 mi NNW 24.2 mph - N/A   Mostly Cloudy
6:20 PM 46.4 °F 38.5 °F 33.8 °F 62% 29.53 in 6.2 mi NNW 21.9 mph - N/A   Mostly Cloudy
6:50 PM 44.6 °F 36.4 °F 33.8 °F 66% 29.53 in 6.2 mi NNW 20.7 mph - N/A   Mostly Cloudy
7:00 PM 44 °F - 35 °F 60% 29.57 in 11 mi North 22.4 mph - -   Clear
7:20 PM 44.6 °F 35.9 °F 33.8 °F 66% 29.56 in 6.2 mi NNW 23.0 mph - N/A   Mostly Cloudy
7:50 PM 44.6 °F 36.4 °F 35.6 °F 71% 29.56 in 6.2 mi NNW 20.7 mph - N/A Rain Light Rain Showers
8:20 PM 42.8 °F 35.1 °F 35.6 °F 76% 29.59 in 6.2 mi NNW 16.1 mph - N/A   Mostly Cloudy
8:50 PM 42.8 °F 34.8 °F 37.4 °F 81% 29.59 in 6.2 mi North 17.3 mph - N/A   Mostly Cloudy
9:20 PM 42.8 °F 34.0 °F 33.8 °F 70% 29.59 in 6.2 mi NNW 20.7 mph - N/A   Mostly Cloudy
9:50 PM 42.8 °F 33.5 °F 33.8 °F 70% 29.62 in 6.2 mi North 23.0 mph - N/A   Mostly Cloudy
10:20 PM 42.8 °F 34.5 °F 33.8 °F 70% 29.62 in 6.2 mi NNW 18.4 mph - N/A   Mostly Cloudy
10:50 PM 42.8 °F 33.5 °F 32.0 °F 66% 29.65 in 6.2 mi NNW 23.0 mph - N/A   Mostly Cloudy
11:20 PM 42.8 °F 33.5 °F 32.0 °F 66% 29.65 in 6.2 mi NNW 23.0 mph - N/A   Mostly Cloudy
11:50 PM 42.8 °F 34.8 °F 32.0 °F 66% 29.65 in 6.2 mi NNW 17.3 mph - N/A Rain Light Rain